Location: Newark
(45.8667°N, 9.7333°E)
Time: 05:28:44
(UTC+00:00)

A-11 Canister half - Pass Details

Date: 21 January 2020
Orbit: 1517 x 1683 km, 47.2° (Epoch: 19 February)

Event Time Altitude Azimuth Distance (km) Brightness Sun altitude
Rises 04:22:48 0° 284° (WNW) 4,668 - -26.2°
Reaches altitude 10° 04:25:49 10° 284° (WNW) 3,682 - -25.6°
Exits shadow 04:31:12 41° 283° (WNW) 2,086 9.2 -24.7°
Maximum altitude 04:35:06 86° 197° (SSW) 1,530 8.9 -24.0°
Drops below altitude 10° 04:44:30 10° 110° (ESE) 3,725 12.1 -22.4°
Sets 04:47:35 0° 110° (ESE) 4,726 12.9 -21.9°
